Torna al catalogo

FENGYUN 1C DEB

AttivoPO
NORAD 31924·DEBRIS·🇨🇳 China

Lanciato May 10, 1999 da Taiyuan Satellite Launch Center

Loading…

Prossimi Passaggi (prossime 24 ore)

TLE

AggiornatoSource: Space-Track

Epoca: Sep 14, 2026, 07:22 UTC

1 31924U 99025CMB 26257.30707662  .00000599  00000-0  61047-3 0  9991
2 31924  98.4201  23.1174 0271378  86.8938 276.3220 13.64792242952258

Traccia FENGYUN 1C DEB in tempo reale con AllMySat

Download on the App Store